Willow Run Airport Detroit US
ICAO: KYIP
IATA: YIP
Category: Medium
Scheduled Services: No

Elevation: 716 ft
TransAlt. 18000 ft.

Airport Communications:
DETROIT APP/DEP:118.95
ASOS:132.35
ATIS:127.425
GND:121.75
TWR:125.275

KYIP Zoom In..

If you have problems with the map follow the link
https://www.worldairports.se/pages/airport.php?
ICAO=KYIP

Runways:

(A) RW 05L length 5996 ft width 160 ft
---- / hdg 53

(B) RW 05R length 7543 ft width 160 ft
ILS 109.50 / hdg 53

(C) RW 09 length 7292 ft width 160 ft
---- / hdg 95

(D) RW 14 length 6312 ft width 160 ft
---- / hdg 142

(E) RW 23L length 7543 ft width 160 ft
ILS 109.50 / hdg 233

(F) RW 23R length 5996 ft width 160 ft
---- / hdg 233

(G) RW 27 length 7292 ft width 160 ft
---- / hdg 275

(H) RW 32 length 6312 ft width 160 ft
---- / hdg 322

Location; KYIP
Day. 17 / Time. 21.53 Zulu
* Altimeter: 30.65
* Temperature: -03° c. -26.6°f.
* Wind from: 130° Speed 10 kn.
Dewpoint: -09° c.
Visibility: 10 Statute Miles.
Clouds: Broken 2500 ft.

KYIP 172153Z 13010KT 10SM BKN025 M03/M09 A3065 RMK AO2 SLP389 T10281089


Wind From 130°
Speed 10 kn.

 
 
jpsmedia worldairports.se 2020   terms of use